OPTUS D2

Last updated on Sat Apr 13 2024 01:02:37 GMT+0100 (British Summer Time)

1 32252U 07044A 24103.51229642 -.00000119 00000+0 00000+0 0 9990 2 32252 0.0178 170.1086 0003277 210.7475 164.7547 1.00272041 60591
UTC large
Height (km)
Speed (km/s)
/
Latitude / Longitude
Inclination (degrees)
Orbital Period (minutes)
Azimuth
Elevation
Range (km)
Doppler Factor

Next 0 passes for location: London (51.5072 / 0.1276)

Sorry there are no passes over London.